GW3385 Weather Reports


Display with metric or nautical units.
time (UTC)temp
F
wind
direction
speed
MPH
gust
MPH
rain 1hr
in
rain 24hr
in
rain mn
in
humidity
%
barometer
mb
20260903101051 64 0 0.0 3.0 0.00 0.00 0.00 84 1013.2
20260903100556 64 0 0.0 3.0 0.00 0.00 0.00 84 1013.1
20260903100058 64 0 0.0 3.0 0.00 0.00 0.00 84 1013.2
20260903095554 64 0 0.0 3.0 0.00 0.00 0.00 83 1013.1
20260903095054 64 0 0.0 3.0 0.00 0.00 0.00 83 1013.2
20260903094607 64 18 0.0 4.0 0.00 0.00 0.00 83 1013.2
20260903094054 64 0 0.0 4.0 0.00 0.00 0.00 83 1013.3
20260903093552 64 40 0.0 3.0 0.00 0.00 0.00 83 1013.3
20260903093104 65 0 0.0 2.0 0.00 0.00 0.00 83 1013.3
20260903092551 65 13 0.0 2.0 0.00 0.00 0.00 82 1013.3
20260903092051 65 0 0.0 3.0 0.00 0.00 0.00 82 1013.4
20260903091606 65 0 0.0 3.0 0.00 0.00 0.00 82 1013.5
20260903091054 65 0 0.0 3.0 0.00 0.00 0.00 82 1013.5
20260903090555 65 24 0.0 3.0 0.00 0.00 0.00 82 1013.6
20260903090059 65 31 1.0 4.0 0.00 0.00 0.00 81 1013.5
20260903085554 65 36 0.0 4.0 0.00 0.00 0.00 81 1013.5
20260903085054 65 15 1.0 4.0 0.00 0.00 0.00 81 1013.6
20260903084559 65 0 0.0 0.0 0.00 0.00 0.00 81 1013.6
20260903084054 65 0 0.0 0.0 0.00 0.00 0.00 81 1013.7
20260903083554 65 0 0.0 0.0 0.00 0.00 0.00 80 1013.7
20260903083103 65 0 0.0 0.0 0.00 0.00 0.00 80 1013.7
20260903082554 65 0 0.0 0.0 0.00 0.00 0.00 80 1013.7
20260903082054 65 0 0.0 0.0 0.00 0.00 0.00 79 1013.8
20260903081556 65 0 0.0 0.0 0.00 0.00 0.00 79 1013.8
20260903081051 65 0 0.0 0.0 0.00 0.00 0.00 79 1013.9
20260903080555 65 0 0.0 0.0 0.00 0.00 0.00 78 1013.9
20260903080106 65 0 0.0 0.0 0.00 0.00 0.00 78 1013.9
20260903075555 65 0 0.0 2.0 0.00 0.00 0.00 78 1013.9
20260903075055 65 0 0.0 2.0 0.00 0.00 0.00 78 1013.9
20260903074559 66 0 0.0 2.0 0.00 0.00 0.00 78 1013.9
20260903074054 66 0 0.0 2.0 0.00 0.00 0.00 78 1013.8
20260903073554 66 0 0.0 0.0 0.00 0.00 0.00 78 1013.9
20260903073113 65 0 0.0 0.0 0.00 0.00 0.00 78 1013.8
20260903072554 65 0 0.0 0.0 0.00 0.00 0.00 77 1013.8
20260903072051 65 0 0.0 0.0 0.00 0.00 0.00 76 1013.8
20260903071602 65 0 0.0 0.0 0.00 0.00 0.00 76 1013.8
20260903071059 65 0 0.0 0.0 0.00 0.00 0.00 75 1013.8
20260903070600 65 0 0.0 0.0 0.00 0.00 0.00 75 1013.9
20260903070107 65 0 0.0 0.0 0.00 0.00 0.00 75 1013.9
20260903065557 65 0 0.0 0.0 0.00 0.00 0.00 75 1013.8
20260903065056 65 0 0.0 0.0 0.00 0.00 0.00 75 1013.8
20260903064606 65 0 0.0 0.0 0.00 0.00 0.00 74 1013.8
20260903064056 65 0 0.0 0.0 0.00 0.00 0.00 74 1013.7
20260903063556 65 0 0.0 0.0 0.00 0.00 0.00 74 1013.7
20260903063126 65 0 0.0 0.0 0.00 0.00 0.00 74 1013.7
20260903062557 65 0 0.0 0.0 0.00 0.00 0.00 73 1013.7
20260903062056 65 0 0.0 0.0 0.00 0.00 0.00 73 1013.7
20260903061559 65 0 0.0 0.0 0.00 0.00 0.00 73 1013.7
20260903061058 65 0 0.0 0.0 0.00 0.00 0.00 73 1013.7
20260903060557 65 0 0.0 0.0 0.00 0.00 0.00 73 1013.6
20260903060109 66 0 0.0 0.0 0.00 0.00 0.00 73 1013.5
20260903055557 66 0 0.0 0.0 0.00 0.00 0.00 73 1013.6
20260903055056 66 0 0.0 0.0 0.00 0.00 0.00 73 1013.5
20260903054607 66 0 0.0 0.0 0.00 0.00 0.00 73 1013.5
20260903054056 66 0 0.0 0.0 0.00 0.00 0.00 73 1013.4
20260903053556 67 0 0.0 0.0 0.00 0.00 0.00 73 1013.4
20260903053104 67 0 0.0 3.0 0.00 0.00 0.00 73 1013.5
20260903052556 67 0 0.0 3.0 0.00 0.00 0.00 73 1013.6
20260903052059 67 49 0.0 2.0 0.00 0.00 0.00 73 1013.5
20260903051600 67 0 0.0 2.0 0.00 0.00 0.00 73 1013.5
20260903051056 67 0 0.0 3.0 0.00 0.00 0.00 73 1013.5
20260903050558 67 39 0.0 5.0 0.00 0.00 0.00 73 1013.4
20260903050059 67 38 0.0 5.0 0.00 0.00 0.00 73 1013.4
20260903045557 67 38 0.0 3.0 0.00 0.00 0.00 73 1013.4
20260903045058 67 24 1.0 4.0 0.00 0.00 0.00 73 1013.3
20260903044605 67 0 0.0 4.0 0.00 0.00 0.00 73 1013.2
20260903044056 67 28 1.0 3.0 0.00 0.00 0.00 73 1013.3
20260903043555 67 0 0.0 3.0 0.00 0.00 0.00 73 1013.4
20260903043108 67 61 0.0 4.0 0.00 0.00 0.00 73 1013.3
20260903042557 67 13 1.0 4.0 0.00 0.00 0.00 73 1013.3
20260903042059 68 23 1.0 4.0 0.00 0.00 0.00 73 1013.3
20260903041600 68 28 0.0 3.0 0.00 0.00 0.00 73 1013.4
20260903041056 68 22 1.0 3.0 0.00 0.00 0.00 73 1013.4
20260903040559 68 5 1.0 3.0 0.00 0.00 0.00 73 1013.4
20260903040055 68 30 0.0 4.0 0.00 0.00 0.00 73 1013.3
20260903035555 68 33 0.0 4.0 0.00 0.00 0.00 73 1013.3
20260903035054 68 29 1.0 4.0 0.00 0.00 0.00 72 1013.3
20260903034600 68 35 1.0 3.0 0.00 0.00 0.00 72 1013.3
20260903034050 68 34 0.0 3.0 0.00 0.00 0.00 72 1013.2
20260903033553 68 5 0.0 3.0 0.00 0.00 0.00 72 1013.2
20260903033103 68 30 0.0 3.0 0.00 0.00 0.00 72 1013.2
20260903032555 68 0 0.0 3.0 0.00 0.00 0.00 72 1013.0
20260903032056 69 0 0.0 2.0 0.00 0.00 0.00 72 1013.2
20260903031602 69 30 1.0 2.0 0.00 0.00 0.00 71 1013.1
20260903031056 69 29 0.0 2.0 0.00 0.00 0.00 71 1013.1
20260903030555 69 26 0.0 2.0 0.00 0.00 0.00 71 1013.0
20260903030107 69 0 0.0 3.0 0.00 0.00 0.00 70 1013.0
20260903025554 69 0 0.0 3.0 0.00 0.00 0.00 70 1013.0
20260903025054 69 74 1.0 3.0 0.00 0.00 0.00 69 1012.9
20260903024557 70 0 0.0 3.0 0.00 0.00 0.00 69 1012.9
20260903024054 70 0 1.0 3.0 0.00 0.00 0.00 69 1012.9
20260903023550 70 63 1.0 4.0 0.00 0.00 0.00 68 1013.0
20260903023101 70 63 2.0 4.0 0.00 0.00 0.00 68 1013.0
20260903022554 71 69 1.0 3.0 0.00 0.00 0.00 67 1013.0
20260903022054 71 70 1.0 2.0 0.00 0.00 0.00 67 1013.0
20260903021557 71 58 0.0 1.0 0.00 0.00 0.00 66 1013.0
20260903021054 71 0 0.0 3.0 0.00 0.00 0.00 66 1013.0
20260903020554 71 0 0.0 3.0 0.00 0.00 0.00 66 1013.0
20260903015554 71 259 0.0 5.0 0.00 0.00 0.00 66 1013.0
20260903015054 71 233 1.0 8.0 0.00 0.00 0.00 69 1013.1
20260903014602 71 209 3.0 8.0 0.00 0.00 0.00 69 1013.0
20260903014051 71 142 4.0 8.0 0.00 0.00 0.00 69 1013.1
20260903013554 71 162 5.0 8.0 0.00 0.00 0.00 68 1013.0
20260903013105 72 0 3.0 8.0 0.00 0.00 0.00 69 1013.0
20260903012556 72 193 2.0 9.0 0.00 0.00 0.00 69 1013.0
20260903012054 72 258 3.0 9.0 0.00 0.00 0.00 68 1013.0
20260903011611 72 157 4.0 9.0 0.00 0.00 0.00 68 1013.0
20260903011055 72 149 3.0 9.0 0.00 0.00 0.00 68 1013.1
20260903010554 72 254 5.0 10.0 0.00 0.00 0.00 68 1013.1
20260903010142 72 297 7.0 12.0 0.00 0.00 0.00 66 1013.1
20260903005554 72 269 6.0 13.0 0.00 0.00 0.00 68 1013.1
20260903005055 73 280 4.0 13.0 0.00 0.00 0.00 69 1013.0
20260903004614 73 265 8.0 13.0 0.00 0.00 0.00 67 1013.0
20260903004051 73 169 2.0 10.0 0.00 0.00 0.00 68 1013.0
20260903003555 73 275 5.0 10.0 0.00 0.00 0.00 68 1013.2
20260903003100 73 289 4.0 11.0 0.00 0.00 0.00 68 1013.1
20260903002554 73 238 4.0 11.0 0.00 0.00 0.00 68 1013.2
20260903002055 74 245 5.0 10.0 0.00 0.00 0.00 66 1013.2
20260903001556 73 151 3.0 12.0 0.00 0.00 0.00 65 1013.1
20260903001051 73 261 6.0 14.0 0.00 0.00 0.00 65 1013.1
20260903000554 73 276 8.0 14.0 0.00 0.00 0.00 65 1013.2
20260903000056 74 263 5.0 13.0 0.00 0.00 0.00 65 1013.2
20260902235552 74 43 6.0 13.0 0.00 0.00 0.00 65 1013.3
20260902235051 73 214 5.0 9.0 0.00 0.00 0.00 64 1013.2
20260902234555 73 229 4.0 15.0 0.00 0.00 0.00 65 1013.3
20260902234051 73 125 6.0 15.0 0.00 0.00 0.00 65 1013.3
20260902233555 73 172 5.0 12.0 0.00 0.00 0.00 65 1013.3
20260902233104 74 240 7.0 12.0 0.00 0.00 0.00 66 1013.3
20260902232555 74 309 4.0 12.0 0.00 0.00 0.00 68 1013.3
20260902232054 74 259 4.0 14.0 0.00 0.00 0.00 68 1013.1
20260902231602 74 225 7.0 14.0 0.00 0.00 0.00 68 1013.1
20260902231055 74 219 3.0 13.0 0.00 0.00 0.00 67 1013.2
20260902230554 73 242 7.0 13.0 0.00 0.00 0.00 66 1013.3
20260902230105 74 212 7.0 12.0 0.00 0.00 0.00 66 1013.3
20260902225551 74 172 6.0 12.0 0.00 0.00 0.00 66 1013.4
20260902225053 74 307 4.0 11.0 0.00 0.00 0.00 67 1013.3
20260902224557 74 267 5.0 11.0 0.00 0.00 0.00 66 1013.4
20260902224054 74 263 3.0 14.0 0.00 0.00 0.00 67 1013.4
20260902223551 74 306 6.0 14.0 0.00 0.00 0.00 67 1013.4
20260902223121 74 245 6.0 12.0 0.00 0.00 0.00 66 1013.5
20260902222551 74 302 8.0 12.0 0.00 0.00 0.00 67 1013.7
20260902222053 75 198 6.0 12.0 0.00 0.00 0.00 65 1013.7
20260902221558 75 205 6.0 11.0 0.00 0.00 0.00 65 1013.6
20260902221057 75 182 5.0 11.0 0.00 0.00 0.00 63 1013.7
20260902220552 76 231 5.0 14.0 0.00 0.00 0.00 62 1013.8
20260902220109 76 263 5.0 14.0 0.00 0.00 0.00 62 1013.8
20260902215552 76 265 5.0 11.0 0.00 0.00 0.00 62 1013.8
20260902215057 76 144 4.0 11.0 0.00 0.00 0.00 62 1013.9
20260902214608 76 236 4.0 13.0 0.00 0.00 0.00 62 1014.0
20260902214052 76 217 7.0 14.0 0.00 0.00 0.00 62 1013.9
20260902213550 76 200 5.0 14.0 0.00 0.00 0.00 60 1013.9
20260902213100 76 308 6.0 12.0 0.00 0.00 0.00 59 1014.0
20260902212555 76 229 4.0 12.0 0.00 0.00 0.00 60 1014.0
20260902212055 76 198 6.0 12.0 0.00 0.00 0.00 61 1014.1
20260902211602 77 145 3.0 11.0 0.00 0.00 0.00 61 1014.0
20260902211054 76 322 5.0 12.0 0.00 0.00 0.00 61 1014.1
20260902210554 76 182 6.0 12.0 0.00 0.00 0.00 61 1014.1
20260902210121 76 205 4.0 12.0 0.00 0.00 0.00 61 1014.3
20260902205554 76 203 3.0 12.0 0.00 0.00 0.00 62 1014.5
20260902205054 75 207 6.0 12.0 0.00 0.00 0.00 62 1014.6
20260902204640 75 204 5.0 11.0 0.00 0.00 0.00 62 1014.5
20260902204054 75 194 5.0 11.0 0.00 0.00 0.00 63 1014.6
20260902203555 75 180 5.0 11.0 0.00 0.00 0.00 63 1014.6
20260902203102 75 147 6.0 11.0 0.00 0.00 0.00 63 1014.6
20260902202555 75 203 5.0 11.0 0.00 0.00 0.00 63 1014.8
20260902202055 75 241 4.0 11.0 0.00 0.00 0.00 64 1014.7
20260902201615 75 249 5.0 11.0 0.00 0.00 0.00 64 1014.8
20260902201059 75 253 5.0 10.0 0.00 0.00 0.00 64 1014.9
20260902200554 74 191 5.0 10.0 0.00 0.00 0.00 64 1014.8
20260902200105 74 275 5.0 11.0 0.00 0.00 0.00 66 1014.9
20260902195555 74 311 5.0 12.0 0.00 0.00 0.00 66 1014.8
20260902195055 74 296 5.0 12.0 0.00 0.00 0.00 67 1014.9
20260902194606 74 271 7.0 12.0 0.00 0.00 0.00 67 1014.9
20260902194055 74 289 4.0 10.0 0.00 0.00 0.00 67 1014.8
20260902193555 74 195 5.0 11.0 0.00 0.00 0.00 68 1015.0
20260902193102 74 260 6.0 11.0 0.00 0.00 0.00 68 1014.9
20260902192557 74 265 4.0 10.0 0.00 0.00 0.00 68 1015.0
20260902192055 74 296 4.0 12.0 0.00 0.00 0.00 68 1014.9
20260902191555 74 288 6.0 12.0 0.00 0.00 0.00 68 1015.1
20260902191054 74 226 4.0 12.0 0.00 0.00 0.00 68 1015.1
20260902190555 73 158 3.0 10.0 0.00 0.00 0.00 69 1015.1
20260902190058 73 189 4.0 11.0 0.00 0.00 0.00 70 1015.1
20260902185558 73 161 5.0 11.0 0.00 0.00 0.00 70 1015.1
20260902185056 73 215 6.0 10.0 0.00 0.00 0.00 70 1015.2
20260902184557 73 220 3.0 12.0 0.00 0.00 0.00 70 1015.2
20260902184055 73 270 6.0 12.0 0.00 0.00 0.00 70 1015.3
20260902183553 73 267 3.0 9.0 0.00 0.00 0.00 70 1015.4
20260902183113 73 281 2.0 10.0 0.00 0.00 0.00 71 1015.3
20260902182553 73 172 3.0 10.0 0.00 0.00 0.00 70 1015.3
20260902182056 73 213 5.0 9.0 0.00 0.00 0.00 70 1015.3
20260902181612 73 201 2.0 9.0 0.00 0.00 0.00 70 1015.3
20260902181052 73 239 5.0 9.0 0.00 0.00 0.00 69 1015.3
20260902180553 73 100 2.0 8.0 0.00 0.00 0.00 69 1015.4
20260902180057 73 177 3.0 8.0 0.00 0.00 0.00 69 1015.4
20260902175552 73 212 3.0 7.0 0.00 0.00 0.00 68 1015.4
20260902175054 74 200 2.0 6.0 0.00 0.00 0.00 67 1015.3
20260902174608 74 258 0.0 5.0 0.00 0.00 0.00 65 1015.3
20260902174054 74 142 1.0 9.0 0.00 0.00 0.00 66 1015.3
20260902173554 73 161 1.0 9.0 0.00 0.00 0.00 67 1015.5
20260902173117 73 145 2.0 7.0 0.00 0.00 0.00 68 1015.5
20260902172552 72 124 1.0 7.0 0.00 0.00 0.00 69 1015.6
20260902172052 72 225 1.0 7.0 0.00 0.00 0.00 68 1015.5
20260902171558 72 156 3.0 7.0 0.00 0.00 0.00 69 1015.5
20260902171053 73 242 2.0 7.0 0.00 0.00 0.00 69 1015.5
20260902170553 72 107 0.0 6.0 0.00 0.00 0.00 70 1015.4
20260902165553 71 0 2.0 6.0 0.00 0.00 0.00 71 1015.4
20260902165052 71 40 2.0 7.0 0.00 0.00 0.00 71 1015.4
20260902164606 71 122 1.0 7.0 0.00 0.00 0.00 72 1015.3
20260902164055 71 92 0.0 8.0 0.00 0.00 0.00 72 1015.2
20260902163552 71 0 2.0 8.0 0.00 0.00 0.00 72 1015.3
20260902163100 71 98 2.0 8.0 0.00 0.00 0.00 72 1015.2
20260902162552 71 107 2.0 7.0 0.00 0.00 0.00 72 1015.2
20260902162054 71 38 0.0 4.0 0.00 0.00 0.00 74 1015.2
20260902161607 70 97 1.0 6.0 0.00 0.00 0.00 74 1015.3
20260902161052 70 107 2.0 6.0 0.00 0.00 0.00 74 1015.2
20260902160554 70 111 1.0 6.0 0.00 0.00 0.00 74 1015.2
20260902160103 70 275 1.0 6.0 0.00 0.00 0.00 73 1015.2
20260902155553 70 168 0.0 3.0 0.00 0.00 0.00 74 1015.2
20260902155053 70 90 0.0 3.0 0.00 0.00 0.00 74 1015.2
20260902154605 70 0 0.0 4.0 0.00 0.00 0.00 76 1015.2
20260902154054 69 0 1.0 4.0 0.00 0.00 0.00 76 1015.1
20260902153556 70 245 1.0 4.0 0.00 0.00 0.00 74 1015.1
20260902153109 70 0 0.0 0.0 0.00 0.00 0.00 76 1015.1
20260902152558 70 0 0.0 0.0 0.00 0.00 0.00 77 1015.2
20260902152054 69 0 0.0 0.0 0.00 0.00 0.00 79 1015.1
20260902151601 68 0 0.0 0.0 0.00 0.00 0.00 80 1015.1
20260902151058 68 0 0.0 0.0 0.00 0.00 0.00 81 1015.1
20260902150555 67 0 0.0 0.0 0.00 0.00 0.00 82 1015.0
20260902145555 66 0 0.0 0.0 0.00 0.00 0.00 85 1015.2
20260902145055 65 0 0.0 0.0 0.00 0.00 0.00 87 1015.1
20260902144557 64 0 0.0 0.0 0.00 0.00 0.00 88 1015.1
20260902144054 64 0 0.0 0.0 0.00 0.00 0.00 89 1015.2
20260902143555 63 0 0.0 0.0 0.00 0.00 0.00 89 1015.1
20260902143109 63 0 0.0 0.0 0.00 0.00 0.00 91 1015.1
20260902142552 62 0 0.0 0.0 0.00 0.00 0.00 91 1015.0
20260902142052 62 0 0.0 0.0 0.00 0.00 0.00 90 1015.0
20260902141602 62 0 0.0 2.0 0.00 0.00 0.00 91 1015.0
20260902141054 62 0 0.0 3.0 0.00 0.00 0.00 91 1014.8
20260902140553 62 0 1.0 3.0 0.00 0.00 0.00 91 1014.7
20260902140056 61 327 0.0 3.0 0.00 0.00 0.00 91 1014.6
20260902135552 61 0 1.0 4.0 0.00 0.00 0.00 91 1014.6
20260902135052 61 343 2.0 4.0 0.00 0.00 0.00 90 1014.5
20260902134555 61 352 1.0 5.0 0.00 0.00 0.00 91 1014.5
20260902134052 61 336 2.0 5.0 0.00 0.00 0.00 91 1014.5
20260902133555 61 345 2.0 5.0 0.00 0.00 0.00 91 1014.5
20260902133101 61 335 2.0 5.0 0.00 0.00 0.00 90 1014.5
20260902132552 61 336 2.0 4.0 0.00 0.00 0.00 90 1014.6
20260902132053 61 331 1.0 4.0 0.00 0.00 0.00 90 1014.5
20260902131559 61 0 2.0 4.0 0.00 0.00 0.00 90 1014.5
20260902131053 61 0 0.0 4.0 0.00 0.00 0.00 90 1014.6
20260902130552 61 0 2.0 4.0 0.00 0.00 0.00 90 1014.3
20260902130105 61 352 0.0 4.0 0.00 0.00 0.00 91 1014.3
20260902125553 61 0 0.0 2.0 0.00 0.00 0.00 90 1014.3
20260902125055 61 0 0.0 2.0 0.00 0.00 0.00 90 1014.4
20260902124554 61 0 0.0 3.0 0.00 0.00 0.00 90 1014.4
20260902124052 61 352 0.0 4.0 0.00 0.00 0.00 90 1014.3
20260902123556 61 0 0.0 4.0 0.00 0.00 0.00 90 1014.3
20260902123109 61 335 1.0 4.0 0.00 0.00 0.00 90 1014.3
20260902122555 61 0 0.0 2.0 0.00 0.00 0.00 90 1014.5
20260902122052 61 0 0.0 2.0 0.00 0.00 0.00 90 1014.5
20260902121559 61 332 0.0 4.0 0.00 0.00 0.00 90 1014.5
20260902121054 61 0 0.0 4.0 0.00 0.00 0.00 90 1014.5
20260902120557 61 0 0.0 4.0 0.00 0.00 0.00 90 1014.5
20260902120059 61 0 0.0 0.0 0.00 0.00 0.00 89 1014.6
20260902115556 61 0 0.0 0.0 0.00 0.00 0.00 89 1014.6
20260902115054 61 0 0.0 0.0 0.00 0.00 0.00 89 1014.6
20260902114555 61 0 0.0 0.0 0.00 0.00 0.00 89 1014.6
20260902114055 61 0 0.0 0.0 0.00 0.00 0.00 89 1014.5
20260902113552 61 0 0.0 0.0 0.00 0.00 0.00 89 1014.5
20260902113101 61 0 0.0 0.0 0.00 0.00 0.00 89 1014.6
20260902112552 62 0 0.0 0.0 0.00 0.00 0.00 88 1014.6
20260902112055 62 0 0.0 0.0 0.00 0.00 0.00 89 1014.5
20260902111603 62 0 0.0 0.0 0.00 0.00 0.00 89 1014.5
20260902111055 62 0 0.0 0.0 0.00 0.00 0.00 89 1014.5
20260902110555 62 0 0.0 0.0 0.00 0.00 0.00 89 1014.5
20260902110103 62 0 0.0 0.0 0.00 0.00 0.00 88 1014.6
20260902105554 62 0 0.0 0.0 0.00 0.00 0.00 88 1014.5
20260902105054 62 0 0.0 0.0 0.00 0.00 0.00 88 1014.5
20260902104613 62 0 0.0 0.0 0.00 0.00 0.00 88 1014.5
20260902104055 62 0 0.0 2.0 0.00 0.00 0.00 88 1014.6
20260902103554 62 0 0.0 2.0 0.00 0.00 0.00 88 1014.6
20260902103109 62 0 0.0 3.0 0.00 0.00 0.00 88 1014.5
20260902102554 62 0 0.0 3.0 0.00 0.00 0.00 88 1014.6
20260902102055 62 0 0.0 3.0 0.00 0.00 0.00 88 1014.5
20260902101607 62 0 0.0 2.0 0.00 0.00 0.00 88 1014.5
20260902101057 62 0 0.0 2.0 0.00 0.00 0.00 88 1014.5